Location: Unspecified
(22.6800°N, 112.2000°E)
Time: 11:00:08
(UTC+08:00)

S-56A Canister/Altair - Pass Details

Date: 25 July 2021
Orbit: 632 x 2500 km, 38.9° (Epoch: 27 September)

Event Time Altitude Azimuth Distance (km) Brightness Sun altitude
Rises 19:02:53 0° 277° (W) 6,125 14.2 1.9°
Reaches altitude 10° 19:07:21 10° 284° (WNW) 5,161 14.0 1.0°
Maximum altitude 19:21:10 40° 350° (N) 3,104 11.0 -2.0°
Drops below altitude 10° 19:32:41 10° 57° (ENE) 4,323 11.0 -4.4°
Sets 19:36:03 0° 65° (ENE) 5,075 11.3 -5.2°
